This is the latest recevied weather packets stored in our database for station/object KB1MS. If no packets are shown the sender has not sent any weather packets the latest 10 day(s).
| Time | Temp. | Humidity | Pressure | Rain* | Wind** | Luminosity | Snow |
|---|---|---|---|---|---|---|---|
| 1788619725 | 20.56° C | 75% | 1009.6 hPa | 0 mm | - | 251 W/m² | - |
| 1788619421 | 20.56° C | 75% | 1009.4 hPa | 0 mm | - | 112 W/m² | - |
| 1788619119 | 20.56° C | 74% | 1009.4 hPa | 0 mm | - | 118 W/m² | - |
| 1788618814 | 20.56° C | 74% | 1009.3 hPa | 0 mm | - | 159 W/m² | - |
| 1788618513 | 20.56° C | 74% | 1009.3 hPa | 0 mm | - | 115 W/m² | - |
| 1788618207 | 20.56° C | 74% | 1009.4 hPa | 0 mm | - | 152 W/m² | - |
| 1788617904 | 20.56° C | 74% | 1009.6 hPa | 0 mm | - | 175 W/m² | - |
| 1788617604 | 20.56° C | 74% | 1009 hPa | 0 mm | - | 185 W/m² | - |
| 1788617300 | 20.56° C | 72% | 1009.3 hPa | 0 mm | - | 156 W/m² | - |
| 1788616999 | 21.11° C | 72% | 1009.2 hPa | 0 mm | - | 157 W/m² | - |
| 1788616698 | 21.11° C | 72% | 1009.3 hPa | 0 mm | - | 168 W/m² | - |
| 1788616394 | 21.11° C | 72% | 1009.3 hPa | 0 mm | - | 197 W/m² | - |
| 1788616090 | 20.56° C | 72% | 1009.5 hPa | 0 mm | - | 209 W/m² | - |
| 1788615789 | 21.11° C | 71% | 1009.8 hPa | 0 mm | - | 212 W/m² | - |
| 1788615489 | 21.11° C | 72% | 1009.4 hPa | 0 mm | - | 197 W/m² | - |
| 1788615184 | 21.11° C | 72% | 1009.3 hPa | 0 mm | - | 197 W/m² | - |
| 1788614883 | 20.56° C | 73% | 1009.5 hPa | 0 mm | - | 198 W/m² | - |
| 1788614579 | 20.56° C | 73% | 1009.2 hPa | 0 mm | - | 148 W/m² | - |
| 1788614273 | 20° C | 73% | 1009.3 hPa | 0 mm | - | 133 W/m² | - |
| 1788613969 | 20° C | 74% | 1009.3 hPa | 0 mm | - | 68 W/m² | - |
| 1788613664 | 20° C | 75% | 1009.1 hPa | 0 mm | - | 49 W/m² | - |
| 1788613363 | 20° C | 74% | 1008.8 hPa | 0 mm | - | 49 W/m² | - |
| 1788613058 | 20° C | 74% | 1009.1 hPa | 0 mm | - | 48 W/m² | - |
| 1788612753 | 19.44° C | 75% | 1009.2 hPa | 0 mm | - | 85 W/m² | - |
| 1788612450 | 19.44° C | 75% | 1009.2 hPa | 0 mm | - | 57 W/m² | - |
* Rain latest hour (hover to see other rain measurements)
** Current wind speed in m/s (hover to see current wind gust speed)